Airfield :
LOGIN :

Register | Disclaimer

   EN    FR    IT 

 










Legend :    VFR   Marginal VFR   IFR   Intensive IFR   Very Intensive IFR
Visi :
Ceiling :
>= 8 km
>= 3000ft
5 to 8 km
1000 to 3000 ft
1500m to 5 km
500 to 1000 ft
800 to 1500m
200 to 500 ft
< 800m
< 200 ft
Symbols :   Thunderstorms  Fog  Heavy snow  Heavy precipitations  Wind > 20 kt
SIGMETs :     Misc.  Thunderstorms  Icing  Turbulence  Mountain Waves  Volcanic Ashes







- Airport Elevation : 505 ft
- IATA code : SXB
- Download approach charts


LFST - Strasbourg

CURRENT METAR :
  • 181600Z AUTO VRB03KT 9999 SCT058 02/M02 Q1019 NOSIG

EXPIRED METARs :
  • 181530Z AUTO 06002KT 9999 BKN054 03/M02 Q1019 NOSIG
  • 181500Z AUTO VRB02KT 9999 BKN056 03/M02 Q1019 NOSIG
  • 181430Z AUTO VRB03KT 9999 OVC052 03/M02 Q1020 NOSIG
  • 181400Z AUTO 07004KT 050V120 9999 ////// 03/M01 Q1020
  • 181330Z AUTO 08003KT 020V150 9999 FEW025 BKN043 OVC049 03/M01 Q1020 NOSIG

TAF TAF LFST
Valid from the 18 at 12:00 until the 19 at 12:00 UTC


181100Z 1812/1912 VRB03KT 9999 BKN040
No reported NOTAMs for that airfield.



MET'MAP, your aeronautical weather chart ! - Copyright ORBIFLY December 2007 - Disclaimer

ORBIFLY MET'MAP TEAM :

Programming & Development : Alexandra Zaïnal
Concept & Development : Baudouin d'Aumeries
Co-Development & Prog : Marc-Olivier Méhu
Technical & hardware support : Manuel Goepfert

Contact : metmap@orbifly.com




SOURCES & CREDITS :

   NOAA